Zapata, TX

6:04 PM CST on January 22, 2017 (GMT -0600)
Zapata

Weather History for KAPY - August, 2013

Change the Weather History Date:

Sunday, August 18, 2013

  Actual Average (KLRD) Record (KLRD)
Temperature  
Mean Temperature 88 °F -  
Max Temperature 100 °F 95 °F 110 °F (1909)
Min Temperature 75 °F 75 °F 61 °F (1908)
Cooling Degree Days 22    
Growing Degree Days 38 (Base 50)    
Moisture  
Dew Point 57 °F    
Average Humidity 40    
Maximum Humidity 76    
Minimum Humidity 15    
Precipitation  
Precipitation 0.00 in - - ()
Sea Level Pressure  
Sea Level Pressure 29.97 in    
Wind  
Wind Speed 6 mph (ESE)    
Max Wind Speed 15 mph    
Max Gust Speed 29 mph    
Visibility 10 miles    
Events      
Averages and records for this station are not official NWS values.
T = Trace of Precipitation, MM = Missing Value Source: NWS Daily Summary

Daily Weather History Graph

Daily Weather History Graph

Search for Another Location

Airport or City:

Trip Planner

Search our weather history database for the weather conditions in past years. The results will help you decide how hot, cold, wet, or windy it might be!

Date:

Astronomy

Aug. 18, 2013 Rise Set
Actual Time 7:10 AM CDT 8:11 PM CDT
Civil Twilight 6:45 AM CDT 8:35 PM CDT
Nautical Twilight 6:17 AM CDT 9:03 PM CDT
Astronomical Twilight 5:47 AM CDT 9:32 PM CDT
Moon 6:13 PM CDT (8/18) 4:28 AM CDT (8/18)
Length of Visible Light 13h 49m
Length of Day
13h 00m
Waxing Gibbous, 92% of the Moon is Illuminated
Aug 18
Waxing Gibbous
Aug 20
Full
Aug 28
Last Quarter
Sep 5
New
Sep 12
First Quarter

Hourly Weather History & Observations

Time (CDT) Temp. Heat Index Dew Point Humidity Pressure Visibility Wind Dir Wind Speed Gust Speed Precip Events Conditions
12:15 AM 83.8 °F 83.6 °F 59.2 °F 43% 29.97 in 10.0 mi ESE 8.1 mph - N/A   Clear
12:35 AM 82.9 °F 83.3 °F 60.8 °F 47% 29.98 in 10.0 mi ESE 8.1 mph - N/A   Clear
1:15 AM 81.7 °F 82.6 °F 61.9 °F 51% 29.98 in 10.0 mi SE 5.8 mph - N/A   Clear
1:35 AM 81.3 °F 82.5 °F 62.8 °F 53% 29.97 in 10.0 mi SE 5.8 mph - N/A   Clear
1:55 AM 80.8 °F 82.2 °F 63.5 °F 56% 29.97 in 10.0 mi SE 5.8 mph - N/A   Clear
2:15 AM 80.4 °F 82.0 °F 63.9 °F 57% 29.97 in 10.0 mi SE 6.9 mph - N/A   Clear
2:35 AM 79.9 °F - 64.4 °F 59% 29.96 in 10.0 mi ESE 4.6 mph - N/A   Clear
2:55 AM 79.3 °F - 64.8 °F 61% 29.96 in 10.0 mi ESE 5.8 mph - N/A   Clear
3:15 AM 78.8 °F - 65.3 °F 63% 29.95 in 10.0 mi ESE 5.8 mph - N/A   Clear
3:55 AM 78.4 °F - 65.7 °F 65% 29.94 in 10.0 mi SE 4.6 mph - N/A   Clear
4:35 AM 78.1 °F - 66.2 °F 67% 29.94 in 10.0 mi ESE 3.5 mph - N/A   Clear
4:55 AM 77.2 °F - 66.2 °F 69% 29.94 in 10.0 mi ESE 4.6 mph - N/A   Clear
5:15 AM 76.3 °F - 66.2 °F 71% 29.94 in 10.0 mi ESE 3.5 mph - N/A   Clear
5:35 AM 76.1 °F - 66.4 °F 72% 29.95 in 10.0 mi East 3.5 mph - N/A   Clear
5:55 AM 76.1 °F - 66.7 °F 73% 29.95 in 10.0 mi East 3.5 mph - N/A   Clear
6:15 AM 76.1 °F - 66.9 °F 73% 29.96 in 10.0 mi East 3.5 mph - N/A   Clear
6:35 AM 75.6 °F - 67.1 °F 75% 29.97 in 10.0 mi Calm Calm - N/A   Clear
6:55 AM 75.4 °F - 67.1 °F 75% 29.97 in 10.0 mi East 4.6 mph - N/A   Clear
7:15 AM 75.6 °F - 67.5 °F 76% 29.98 in 7.0 mi East 4.6 mph - N/A   Clear
7:35 AM 75.9 °F - 67.8 °F 76% 29.98 in 7.0 mi ESE 3.5 mph - N/A   Clear
7:55 AM 76.5 °F - 68.0 °F 75% 29.99 in 7.0 mi ESE 3.5 mph - N/A   Clear
8:55 AM 81.1 °F 84.5 °F 69.8 °F 68% 30.00 in 7.0 mi SE 5.8 mph - N/A   Clear
9:35 AM 84.2 °F 87.9 °F 68.7 °F 60% 30.01 in 7.0 mi SE 5.8 mph - N/A   Clear
10:15 AM 86.5 °F 89.3 °F 66.7 °F 52% 30.01 in 10.0 mi SSE 3.5 mph - N/A   Clear
10:35 AM 88.2 °F 90.6 °F 66.0 °F 48% 30.02 in 10.0 mi Calm Calm - N/A   Clear
10:55 AM 89.1 °F 90.3 °F 64.0 °F 43% 30.02 in 10.0 mi Calm Calm - N/A   Clear
11:15 AM 91.0 °F 91.2 °F 61.2 °F 37% 30.02 in 10.0 mi Calm Calm - N/A   Clear
11:35 AM 91.0 °F 90.5 °F 59.9 °F 35% 30.02 in 10.0 mi Calm Calm - N/A   Clear
11:55 AM 93.4 °F 91.8 °F 56.8 °F 29% 30.01 in 10.0 mi Calm Calm - N/A   Clear
12:15 PM 92.8 °F 91.4 °F 56.8 °F 30% 30.01 in 10.0 mi SE 5.8 mph - N/A   Mostly Cloudy
12:35 PM 94.5 °F 92.3 °F 54.9 °F 26% 30.01 in 10.0 mi Calm Calm - N/A   Scattered Clouds
12:55 PM 95.4 °F 92.9 °F 53.2 °F 24% 30.00 in 10.0 mi Calm Calm - N/A   Clear
1:15 PM 95.7 °F - 51.3 °F 22% 30.00 in 10.0 mi Calm Calm - N/A   Clear
1:35 PM 98.2 °F - 52.0 °F 21% 29.99 in 10.0 mi SE 3.5 mph - N/A   Clear
1:55 PM 97.2 °F - 50.7 °F 21% 29.98 in 10.0 mi NW 3.5 mph 17.3 mph N/A   Clear
2:15 PM 97.0 °F - 50.9 °F 21% 29.97 in 10.0 mi Calm Calm - N/A   Scattered Clouds
2:35 PM 100.0 °F - 47.8 °F 17% 29.97 in 10.0 mi East 8.1 mph - N/A   Scattered Clouds
2:55 PM 99.3 °F - 48.0 °F 18% 29.97 in 10.0 mi SE 4.6 mph - N/A   Scattered Clouds
3:15 PM 100.2 °F - 47.3 °F 17% 29.96 in 10.0 mi ENE 4.6 mph - N/A   Scattered Clouds
3:35 PM 99.0 °F - 45.7 °F 16% 29.95 in 10.0 mi ENE 10.4 mph 18.4 mph N/A   Mostly Cloudy
3:55 PM 98.6 °F - 44.8 °F 16% 29.95 in 10.0 mi East 11.5 mph 16.1 mph N/A   Mostly Cloudy
4:15 PM 99.5 °F - 43.7 °F 15% 29.94 in 10.0 mi ESE 4.6 mph 9.2 mph N/A   Mostly Cloudy
4:35 PM 100.0 °F - 43.7 °F 15% 29.94 in 10.0 mi ENE 12.7 mph 28.8 mph N/A   Mostly Cloudy
4:55 PM 100.0 °F - 44.2 °F 15% 29.94 in 10.0 mi East 11.5 mph 19.6 mph N/A   Mostly Cloudy
5:15 PM 98.2 °F - 45.3 °F 16% 29.93 in 10.0 mi East 3.5 mph - N/A   Scattered Clouds
5:35 PM 99.1 °F - 44.1 °F 15% 29.93 in 10.0 mi ESE 13.8 mph 18.4 mph N/A   Scattered Clouds
6:15 PM 97.9 °F - 44.6 °F 16% 29.93 in 10.0 mi ESE 10.4 mph 16.1 mph N/A   Scattered Clouds
6:35 PM 97.9 °F - 44.2 °F 16% 29.92 in 10.0 mi East 6.9 mph 17.3 mph N/A   Scattered Clouds
6:55 PM 97.5 °F - 43.9 °F 16% 29.92 in 10.0 mi ESE 4.6 mph - N/A   Clear
7:15 PM 96.6 °F - 45.7 °F 17% 29.92 in 10.0 mi East 13.8 mph 21.9 mph N/A   Scattered Clouds
7:35 PM 94.3 °F - 48.4 °F 21% 29.92 in 10.0 mi East 15.0 mph 20.7 mph N/A   Scattered Clouds
7:55 PM 93.6 °F - 48.4 °F 21% 29.93 in 10.0 mi ESE 9.2 mph - N/A   Clear
8:15 PM 92.3 °F - 49.6 °F 23% 29.93 in 10.0 mi ESE 9.2 mph 16.1 mph N/A   Clear
8:35 PM 91.4 °F - 50.5 °F 25% 29.94 in 10.0 mi ESE 8.1 mph - N/A   Clear
8:55 PM 90.1 °F - 51.1 °F 26% 29.94 in 10.0 mi East 10.4 mph 17.3 mph N/A   Clear
9:15 PM 89.1 °F - 51.6 °F 28% 29.95 in 10.0 mi East 11.5 mph - N/A   Clear
9:35 PM 88.2 °F - 51.4 °F 28% 29.95 in 10.0 mi ESE 9.2 mph 17.3 mph N/A   Clear
9:55 PM 87.1 °F - 51.8 °F 30% 29.96 in 10.0 mi ESE 8.1 mph - N/A   Clear
10:55 PM 84.7 °F 83.6 °F 56.1 °F 37% 29.97 in 10.0 mi ESE 6.9 mph - N/A   Clear
11:15 PM 84.2 °F 83.5 °F 57.2 °F 40% 29.97 in 10.0 mi ESE 5.8 mph - N/A   Clear